[[{"header":{"parameterUnit":"m.s-1","parameterCategory":1,"la1":30.2991,"la2":30.254,"lo1":-89.0895,"lo2":-89.0444,"dy":0.0017,"dx":0.0017,"nx":28,"ny":28,"refTime":"2025-01-18T09:00:00:Z","depth":0,"parameterNumber":2,"parameterNumberName":"U-component_of_WINDS"},"data":[0,0,0,0,0,0,0,0,0,0,0,0,0,0,0,0,0,0,0,0,0,0,0,0,0,0,0,0,0,0,0,0,0,0,0,0,0,0,0,0,0,0,0,0,0,0,0,0,0,0,0,0,0,0,0,0,0,0,1.2547,1.2549,0,1.2714,1.2716,1.2717,1.2756,1.2755,1.2754,1.2752,1.2921,1.2926,1.2932,0,0,0,0,0,0,0,0,0,0,0,0,0,1.226,1.2266,1.2547,1.2549,1.2551,1.2713,1.2716,1.2718,1.2756,1.2755,1.2753,1.2752,1.2919,1.2926,1.2932,0,0,0,0,0,0,0,0,0,0,0,0,0,1.2402,1.2267,1.2547,1.259,1.2596,1.2713,1.2716,1.2719,1.2756,1.2755,1.2753,1.2751,1.2917,1.2925,1.2933,1.3019,0,0,1.2959,1.2962,0,0,0,0,0,0,0,0,1.2394,1.2412,1.2582,1.2587,1.2594,1.2712,1.2676,1.2819,1.2757,1.2695,1.2752,1.275,1.2853,1.2866,1.2901,1.3027,1.3034,1.2959,1.2964,1.2968,1.297,0,0,0,0,0,0,0,1.2384,1.2405,1.2613,1.2584,1.2591,1.26,1.2618,1.2704,1.2781,1.27,1.2704,1.2723,1.2856,1.2893,1.2905,1.3036,1.2959,1.2966,1.2972,1.2975,1.324,1.3242,0,0,0,0,0,0,1.2367,1.2397,1.2608,1.2618,1.2487,1.2607,1.2627,1.2676,1.2781,1.2795,1.2724,1.2724,1.288,1.2896,1.2911,1.3019,1.2968,1.2976,1.298,1.3238,1.324,1.3243,0,0,0,0,0,0,1.236,1.2385,1.2601,1.2508,1.2537,1.2614,1.2668,1.268,1.2718,1.2799,1.2812,1.2748,1.2879,1.29,1.2992,1.3025,1.2979,1.2987,1.3235,1.3239,1.3241,1.3234,0,0,0,0,0,0,1.2352,1.2383,1.2417,1.2509,1.2541,1.268,1.267,1.2685,1.2732,1.2733,1.2825,1.2838,1.2879,1.2979,1.3,1.3036,1.2993,1.3233,1.3237,1.3241,1.3231,1.3236,1.324,0,0,0,0,0,1.2342,1.2408,1.2418,1.2444,1.2586,1.2681,1.27,1.2746,1.2734,1.2769,1.2821,1.2835,1.3018,1.2988,1.3012,1.3051,1.3231,1.3236,1.324,1.3229,1.3235,1.324,0,0,0,0,0,0,1.2317,1.242,1.2434,1.2531,1.2597,1.2688,1.2733,1.2751,1.2821,1.2819,1.2873,1.2893,1.2982,1.3025,1.2991,1.3139,1.3124,1.3133,1.3108,1.3114,1.3118,1.3106,1.3,0,0,0,0,0,1.2323,1.2393,1.2479,1.2557,1.2589,1.2655,1.2699,1.2728,1.2799,1.2827,1.2886,1.2952,1.3025,1.3072,1.3143,1.3237,1.3258,1.3275,1.328,1.3283,1.3291,1.3344,1.3353,1.3258,1.3258,1.3258,0,0,1.2336,1.2401,1.2442,1.2554,1.2608,1.2679,1.2679,1.2753,1.2806,1.2838,1.2929,1.2974,1.3052,1.3146,1.319,1.3185,1.3322,1.3289,1.3291,1.3297,1.335,1.3359,1.3367,1.3261,1.326,1.326,0,0,1.2396,1.2452,1.2523,1.2578,1.2661,1.2704,1.2721,1.2809,1.284,1.2932,1.2958,1.302,1.3144,1.3199,1.3243,1.3322,1.3338,1.3343,1.3367,1.3418,1.3426,1.3433,1.3461,1.3471,1.3351,1.3351,1.3351,0,1.2401,1.251,1.2557,1.2631,1.268,1.2712,1.2784,1.2834,1.2936,1.2968,1.2961,1.3116,1.3171,1.3278,1.3297,1.3332,1.3352,1.3334,1.3421,1.3428,1.3435,1.3463,1.3474,1.3351,1.3351,1.3351,1.3351,0,1.2512,1.2587,1.2634,1.2732,1.2786,1.2858,1.2916,1.2964,1.2989,1.3032,1.3125,1.3192,1.3277,1.3304,1.3329,1.3415,1.3409,1.341,1.3397,1.3444,1.3471,1.3482,1.3351,1.3351,1.3351,1.3351,0,0,1.2563,1.2686,1.2702,1.2747,1.284,1.2899,1.2972,1.3056,1.3096,1.3164,1.3227,1.333,1.3332,1.3382,1.3412,1.3457,1.3516,1.3453,1.3456,1.3463,1.3614,1.3613,1.3625,1.3526,1.3528,1.353,1.3608,0,1.2635,1.2768,1.2813,1.2923,1.2992,1.3023,1.3087,1.3151,1.3193,1.3257,1.3303,1.3376,1.3373,1.3403,1.3448,1.3499,1.3547,1.3494,1.3585,1.3587,1.3565,1.3639,1.3638,1.3708,1.3618,1.362,1.3622,0,1.2737,1.2807,1.2925,1.3009,1.304,1.3097,1.3177,1.3238,1.331,1.3337,1.3392,1.342,1.3496,1.3477,1.3583,1.3546,1.3586,1.3616,1.362,1.3631,1.3608,1.3652,1.3732,1.3742,1.3639,1.3637,1.3636,0,1.2762,1.2886,1.2973,1.301,1.3111,1.315,1.3193,1.3264,1.3311,1.338,1.3412,1.3488,1.3531,1.3589,1.3636,1.3618,1.3738,1.3723,1.3763,1.3761,1.3788,1.3786,1.3875,1.3811,1.3811,1.3811,1.3811,0,1.2838,1.2909,1.2986,1.3039,1.3119,1.3169,1.3246,1.3291,1.3353,1.3415,1.3446,1.3503,1.3561,1.3625,1.3662,1.3744,1.3763,1.3787,1.3796,1.3785,1.3782,1.3812,1.3809,1.3814,1.3813,1.3813,1.3812,0,1.2881,1.2935,1.3032,1.3119,1.3142,1.3197,1.3271,1.3323,1.3366,1.3444,1.3465,1.3532,1.361,1.3662,1.376,1.3785,1.3874,1.3882,1.3851,1.3855,1.3893,1.3888,1.4005,1.4023,1.3947,1.3947,1.3948,0,1.2926,1.2982,1.3075,1.3119,1.3163,1.3233,1.3282,1.3332,1.3381,1.3467,1.3509,1.3588,1.3655,1.3777,1.3834,1.3909,1.3919,1.3955,1.3931,1.3918,1.392,1.3917,1.3923,1.3959,1.3959,1.396,1.396,0,1.3002,1.3026,1.3095,1.3174,1.3231,1.3295,1.336,1.3393,1.3455,1.3508,1.3588,1.364,1.374,1.3819,1.3899,1.3943,1.3962,1.3967,1.3981,1.397,1.395,1.3962,1.3862,1.3965,1.3964,1.3964,1.3964,1.3964,1.3048,1.3098,1.3172,1.3248,1.3302,1.3361,1.3414,1.3464,1.3532,1.3619,1.3644,1.3727,1.3796,1.3907,1.3951,1.4016,1.4013,1.4032,1.4037,1.4041,1.4042,1.3939,1.4031,1.4031,1.4031,1.4031,1.4031,0,1.3125,1.3174,1.3243,1.3333,1.3392,1.3405,1.3477,1.3525,1.3598,1.3662,1.3727,1.3818,1.3894,1.3956,1.4034,1.4074,1.4085,1.4093,1.4091,1.4101,1.404,1.4021,1.4083,1.4083,1.4083,1.4083,1.4083,1.4083,1.3173,1.3259,1.3291,1.3404,1.3452,1.3535,1.3574,1.3629,1.368,1.3781,1.3844,1.3885,1.3948,1.4031,1.41,1.4117,1.4144,1.415,1.4169,1.4111,1.4105,1.4099,1.4082,1.4156,1.4156,1.4224,1.4225,1.4225]},{"header":{"parameterUnit":"m.s-1","parameterCategory":1,"la1":30.2991,"la2":30.254,"lo1":-89.0895,"lo2":-89.0444,"dy":0.0017,"dx":0.0017,"nx":28,"ny":28,"refTime":"2025-01-18T09:00:00:Z","depth":0,"parameterNumber":3,"parameterNumberName":"V-component_of_WINDS"},"data":[0,0,0,0,0,0,0,0,0,0,0,0,0,0,0,0,0,0,0,0,0,0,0,0,0,0,0,0,0,0,0,0,0,0,0,0,0,0,0,0,0,0,0,0,0,0,0,0,0,0,0,0,0,0,0,0,0,0,2.7274,2.7275,0,2.7279,2.7279,2.7279,2.7264,2.7263,2.7263,2.7262,2.7267,2.7268,2.7268,0,0,0,0,0,0,0,0,0,0,0,0,0,2.7252,2.7252,2.7274,2.7275,2.7275,2.7279,2.7279,2.7279,2.7264,2.7263,2.7263,2.7262,2.7267,2.7268,2.7268,0,0,0,0,0,0,0,0,0,0,0,0,0,2.7259,2.7252,2.7274,2.7267,2.7267,2.7279,2.7279,2.7279,2.7264,2.7263,2.7263,2.7262,2.7267,2.7267,2.7268,2.7288,0,0,2.7271,2.7271,0,0,0,0,0,0,0,0,2.7259,2.726,2.7268,2.7268,2.7267,2.727,2.7273,2.7282,2.7264,2.7265,2.7262,2.7262,2.7269,2.7269,2.7272,2.7288,2.7288,2.7271,2.7271,2.7272,2.7272,0,0,0,0,0,0,0,2.7258,2.726,2.7276,2.7269,2.7268,2.7264,2.7264,2.7274,2.7271,2.7265,2.7264,2.7265,2.7268,2.7271,2.7272,2.7288,2.7271,2.7272,2.7272,2.7273,2.7321,2.7321,0,0,0,0,0,0,2.7259,2.726,2.7276,2.7276,2.7261,2.7265,2.7265,2.727,2.7271,2.727,2.7265,2.7264,2.727,2.7271,2.7272,2.7295,2.7272,2.7273,2.7273,2.732,2.7321,2.7322,0,0,0,0,0,0,2.7258,2.7261,2.7276,2.7268,2.7269,2.7266,2.7271,2.727,2.7273,2.7271,2.727,2.7269,2.7269,2.7271,2.7284,2.7295,2.7273,2.7274,2.7319,2.732,2.7321,2.7342,0,0,0,0,0,0,2.7258,2.726,2.7268,2.7268,2.727,2.7288,2.7272,2.7271,2.7275,2.7273,2.7274,2.7273,2.7269,2.7283,2.7285,2.7296,2.7274,2.7318,2.7319,2.7321,2.734,2.7343,2.7346,0,0,0,0,0,2.7257,2.7273,2.7268,2.727,2.7279,2.7289,2.729,2.7284,2.7276,2.7283,2.7281,2.7273,2.7293,2.7284,2.7286,2.7298,2.7317,2.7319,2.7321,2.7338,2.7343,2.7346,0,0,0,0,0,0,2.7275,2.7273,2.7268,2.7285,2.7287,2.7286,2.7296,2.7289,2.7294,2.7292,2.7285,2.7285,2.73,2.73,2.729,2.7317,2.7304,2.7306,2.7316,2.732,2.7323,2.7324,2.7275,0,0,0,0,0,2.728,2.7289,2.7287,2.7302,2.7303,2.7299,2.7303,2.7299,2.7301,2.7302,2.7301,2.7304,2.731,2.7315,2.7321,2.7339,2.734,2.7348,2.7351,2.7354,2.7356,2.7367,2.7371,2.7327,2.7327,2.7327,0,0,2.7293,2.7293,2.7298,2.7305,2.7307,2.7315,2.73,2.731,2.7316,2.7303,2.7316,2.7316,2.7318,2.7334,2.7341,2.7334,2.7368,2.7356,2.7358,2.7359,2.7369,2.7373,2.7377,2.7328,2.7328,2.7328,0,0,2.732,2.732,2.7333,2.7335,2.7337,2.7334,2.7337,2.7337,2.7336,2.7349,2.734,2.7347,2.7358,2.7361,2.7363,2.739,2.7384,2.7392,2.7409,2.742,2.7423,2.7426,2.7437,2.7441,2.7395,2.7395,2.7395,0,2.7335,2.7348,2.7341,2.7351,2.7355,2.7343,2.7356,2.7358,2.7362,2.7364,2.7357,2.7371,2.7372,2.7389,2.7395,2.7397,2.7401,2.7393,2.7423,2.7426,2.7429,2.7439,2.7443,2.7396,2.7396,2.7396,2.7395,0,2.7366,2.7375,2.7385,2.739,2.7394,2.7406,2.74,2.7406,2.74,2.7398,2.7411,2.7411,2.7418,2.7421,2.7416,2.7437,2.7433,2.7424,2.7411,2.7434,2.7444,2.7448,2.7397,2.7397,2.7397,2.7396,0,0,2.7406,2.7406,2.741,2.7412,2.7413,2.742,2.7431,2.7437,2.7442,2.7444,2.7454,2.7464,2.7456,2.7459,2.7454,2.7462,2.7485,2.7453,2.7453,2.746,2.751,2.7518,2.7522,2.748,2.7481,2.7481,2.751,0,2.7433,2.7453,2.7447,2.7466,2.7475,2.7463,2.7473,2.7474,2.7473,2.7479,2.7477,2.7485,2.7473,2.7475,2.7483,2.7481,2.7496,2.7478,2.749,2.749,2.7491,2.7527,2.7535,2.7563,2.7514,2.7514,2.7515,0,2.7469,2.7473,2.7494,2.7494,2.7497,2.7506,2.7511,2.7517,2.7519,2.7517,2.752,2.7513,2.7524,2.751,2.7525,2.7514,2.7518,2.7517,2.7518,2.7521,2.7505,2.7532,2.7571,2.7576,2.752,2.752,2.752,0,2.7497,2.7508,2.7522,2.7524,2.7524,2.753,2.7531,2.7531,2.7536,2.754,2.7543,2.7548,2.7551,2.7555,2.755,2.754,2.7567,2.7552,2.7566,2.7567,2.7574,2.7574,2.7616,2.7574,2.7574,2.7573,2.7573,0,2.753,2.7543,2.7535,2.7544,2.7558,2.755,2.7565,2.7564,2.7565,2.7573,2.7563,2.7571,2.7563,2.757,2.7566,2.758,2.7581,2.758,2.7579,2.7582,2.7582,2.7586,2.7584,2.7575,2.7574,2.7574,2.7574,0,2.7565,2.756,2.7574,2.7573,2.7573,2.7584,2.7583,2.7591,2.7587,2.7598,2.76,2.7596,2.7604,2.7598,2.7606,2.7604,2.7622,2.7618,2.7622,2.7622,2.7637,2.7636,2.7684,2.7691,2.7643,2.7643,2.7643,0,2.7587,2.7597,2.7596,2.7601,2.7602,2.761,2.7614,2.7606,2.7611,2.7614,2.7622,2.7629,2.7634,2.7648,2.7645,2.7652,2.7648,2.7665,2.7649,2.7652,2.765,2.7651,2.7652,2.7669,2.7669,2.767,2.767,0,2.7627,2.7623,2.763,2.7635,2.7641,2.7645,2.7648,2.7652,2.7644,2.765,2.7658,2.7663,2.7671,2.7679,2.7684,2.7684,2.7676,2.7674,2.7678,2.7682,2.7685,2.7685,2.7632,2.7674,2.7673,2.7673,2.7673,2.7673,2.7657,2.7665,2.7667,2.7674,2.7675,2.7679,2.7686,2.7684,2.7691,2.7697,2.7692,2.7702,2.7703,2.7709,2.7711,2.7719,2.7712,2.7717,2.7719,2.7721,2.7724,2.7682,2.7719,2.7719,2.7719,2.7719,2.7719,0,2.7697,2.7697,2.7704,2.7709,2.7715,2.7706,2.7709,2.7715,2.7724,2.7725,2.7731,2.7741,2.7748,2.7746,2.7752,2.7759,2.7756,2.7761,2.7762,2.7762,2.7728,2.7725,2.7764,2.7764,2.7764,2.7764,2.7764,2.7764,2.7719,2.7734,2.7731,2.7746,2.7746,2.7756,2.7758,2.7761,2.7763,2.7774,2.778,2.7778,2.7778,2.7785,2.7791,2.779,2.7794,2.7801,2.7799,2.7769,2.7764,2.776,2.7757,2.7802,2.7802,2.7832,2.7833,2.7833]}]]